Home   Weather   Regina   Past weeks
Flag for Canada

Past Weather in Regina, Saskatchewan, Canada — Yesterday and Last 2 Weeks

Now
25 °F

Ice fog.


Feels Like: 18 °F
Forecast: 46 / 24 °F
Wind: 6 mph from West

Location: Regina Weather Station

Current Time: Mar 21, 2019 at 6:06:55 am

Latest Report: Mar 21, 2019 at 5:19 am


Visibility: 3 mi

Pressure: 30.18 "Hg (28.05 "Hg at 577m altitude)

Humidity: 100%

Dew Point: 25 °F

Location of ReginaLocation

Past Weather in Regina — Graph

°F

Regina Temperature Yesterday

Maximum temperature yesterday: 52 °F (at 5:00 pm)
Minimum temperature yesterday: 25 °F (at 5:00 am)
Average temperature yesterday: 36 °F

High & Low Weather Summary for the Past Weeks

 TemperatureHumidityPressure
High52 °F (Mar 20, 5:00 pm)100% (Mar 15, 11:00 pm)30.53 "Hg (Mar 15, 11:00 pm)
Low-17 °F (Mar 6, 8:00 am)65% (Mar 17, 3:00 pm)29.54 "Hg (Mar 12, 1:00 pm)
Average19 °F84%30.14 "Hg
* Reported Mar 6 4:00 am — Mar 21 4:39 am, Regina. Weather by CustomWeather, © 2019

Note: Actual official high and low records may vary slightly from our data, if they occured in-between our weather recording intervals... More about our weather records

Advertising

Regina Weather History for the Previous 24 Hours

Scroll right to see more
 ConditionsComfort  
Time TempWeatherWind HumidityBarometerVisibility
4:39 am
Thu, Mar 21
27 °FIce fog.8 mph100%30.17 "Hg2 mi
4:00 am28 °FClear.5 mph93%30.17 "Hg15 mi
3:00 am30 °FClear.5 mph93%30.16 "Hg15 mi
2:00 am30 °FClear.5 mph100%30.15 "Hg15 mi
1:00 am32 °FClear.3 mph93%30.16 "Hg15 mi
12:00 am32 °FClear.5 mph100%30.16 "Hg15 mi
11:00 pm
Wed, Mar 20
34 °FClear.2 mph93%30.17 "Hg15 mi
10:00 pm34 °FClear.5 mph93%30.18 "Hg15 mi
9:21 pm36 °FClear.7 mph100%30.18 "Hg15 mi
9:00 pm39 °FClear.2 mph93%30.19 "Hg15 mi
8:14 pm36 °FClear.6 mph100%30.20 "Hg15 mi
8:00 pm37 °FClear.8 mph93%30.19 "Hg15 mi
7:00 pm41 °FPassing clouds.6 mph93%30.21 "Hg15 mi
6:00 pm48 °FSunny.6 mph76%30.20 "Hg15 mi
5:00 pm52 °FSunny.3 mph67%30.20 "Hg15 mi
4:00 pm50 °FSunny.6 mph71%30.20 "Hg15 mi
3:00 pm48 °FSunny.5 mph76%30.22 "Hg15 mi
2:00 pm46 °FSunny.3 mph76%30.23 "Hg15 mi
1:00 pm45 °FSunny.6 mph71%30.24 "Hg15 mi
12:00 pm41 °FPassing clouds.7 mph76%30.26 "Hg15 mi
11:00 am37 °FPassing clouds.3 mph87%30.26 "Hg15 mi
10:00 am36 °FPassing clouds.5 mph87%30.25 "Hg15 mi
9:00 am34 °FPassing clouds.No wind87%30.25 "Hg12 mi
8:00 am28 °FSunny.2 mph100%30.25 "Hg10 mi
7:00 am25 °FClear.5 mph93%30.24 "Hg10 mi
6:00 am27 °FClear.5 mph93%30.22 "Hg15 mi
Weather by CustomWeather, © 2019

See weather overview